Location: Cuzcurrita-R�o Tir�n
(42.5415°N, 2.9642°W)
Time: 10:34:51
(UTC+00:00)

Daily predictions for brighter satellites

Satellite Brightness Start Highest point End
(mag) Time Altitude Azimuth Time Altitude Azimuth Time Altitude Azimuth
Cosmos 2297 Rocket 4.1 17:27:54 10° WSW 17:32:30 25° NW 17:37:08 10° N
Cosmos 1603 4.2 17:27:16 10° N 17:32:37 39° ENE 17:37:57 10° SE
Envisat 3.9 17:29:07 10° S 17:34:05 55° W 17:39:05 10° NNW
COSMOS 2455 4.2 17:31:17 10° SSE 17:35:20 19° ESE 17:39:25 10° ENE
Cosmos 972 Rocket 4.2 17:30:53 10° NNW 17:35:57 76° WSW 17:40:48 10° S
KORONAS-FOTON 4.1 17:32:18 10° SSW 17:36:11 73° W 17:40:07 10° N
ATLAS 3B R/B 2.8 17:32:27 10° NNW 17:39:22 63° NE 17:46:33 10° SE
Cosmos 1486 Rocket 4.2 17:34:12 10° SSW 17:39:27 78° WNW 17:44:43 10° NNE
Cosmos 968 Rocket 3.8 17:37:38 10° SSW 17:42:43 68° WNW 17:47:49 10° NNE
YAOGAN 1 4.1 17:41:03 10° E 17:43:33 15° ENE 17:46:02 10° NNE
Cosmos 1606 Rocket 4.4 17:40:55 10° NNE 17:44:45 29° ENE 17:48:36 10° SE
H-2A R/B 2.9 17:43:26 10° S 17:47:19 65° WSW 17:51:24 10° NNW
H-2A R/B 2.2 17:43:23 10° NNE 17:47:53 86° WNW 17:52:16 10° SSW
Cosmos 1626 2.0 17:44:18 10° S 17:47:58 72° E 17:51:40 10° NNE
CZ-2C R/B 3.8 17:44:19 10° SE 17:48:54 33° ENE 17:53:44 10° N
Cosmos 1939 Rocket 3.2 17:45:25 10° SE 17:49:20 44° ENE 17:53:16 10° N
Cosmos 1953 4.0 17:48:14 10° NNW 17:51:56 38° W 17:55:37 10° SSW
CZ-4 R/B 2.6 17:52:25 10° ESE 17:55:34 21° ENE 17:58:42 10° NNE
ATLAS 5 CENTAUR R/B 1.3 17:52:36 10° SSW 17:56:30 74° SE 18:00:52 10° NE
CSL-04 DEB 4.5 17:52:34 10° NNE 17:56:48 65° ESE 18:00:52 10° S
SKYMED 2 4.0 17:53:23 10° NNE 17:57:33 43° E 18:01:40 10° S
MOS 1 Rocket 3.8 17:55:14 10° NNE 17:59:08 32° E 18:02:57 10° SSE
BREEZE-M DEB (TANK) 2.0 17:56:36 10° WNW 18:00:31 71° NNE 18:02:38 11° ESE
Meteor 2-10 Rocket 4.3 18:00:21 10° N 18:05:15 30° ENE 18:09:56 10° SE
Feng Yun 1-1 Rocket 4.2 18:00:45 10° SSE 18:06:02 60° ENE 18:11:26 10° N
SMAP 4.1 18:01:47 10° S 18:06:16 49° W 18:10:48 10° NNW
Cosmos 1503 Rocket 4.2 18:01:26 10° SSW 18:06:47 79° WNW 18:12:12 10° NNE
Abrixas rocket 1.8 18:05:00 10° WNW 18:07:38 72° SSW 18:10:07 11° SE
SJ 16-02 3.1 18:06:37 10° SE 18:08:46 14° E 18:08:46 14° E
Cosmos 2058 Rocket 4.0 18:05:33 10° NNE 18:09:24 27° ENE 18:13:14 10° SE
Cosmos 2228 3.0 18:05:34 10° N 18:09:47 60° E 18:14:00 10° SSE
Cosmos 2263 Rocket 2.3 18:04:11 10° SSW 18:09:52 85° WNW 18:15:35 10° NNE
H-2A R/B 2.7 18:05:58 10° SE 18:10:09 28° ENE 18:14:26 10° N
Cosmos 1315 Rocket 2.7 18:07:25 10° N 18:11:23 67° E 18:15:21 10° SSE
BREEZE-M DEB (TANK) 4.2 18:10:56 10° WNW 18:13:30 42° SSW 18:20:22 10° SE
Meteor 1-24 Rocket 3.5 18:09:36 10° S 18:15:00 76° E 18:20:19 10° NNE
SAR-Lupe-4 4.4 18:12:53 16° NE 18:15:07 29° E 18:18:17 10° SSE
Cosmos 1300 2.6 18:15:55 10° N 18:19:45 89° ENE 18:23:34 10° S
Cosmos 1689 Rocket 2.8 18:22:29 29° E 18:22:36 29° E 18:25:08 10° SSE
GENESIS II 4.4 18:19:32 10° SW 18:23:31 75° WNW 18:26:42 16° NNE
SAR-Lupe-1 4.5 18:24:36 21° NE 18:26:37 40° E 18:29:59 10° S
ISS -1.7 18:26:28 10° SSE 18:28:24 15° SE 18:28:24 15° SE
Cosmos 1943 3.2 18:23:04 10° NNW 18:28:47 87° WSW 18:34:25 10° SSE
DELTA 2 R/B (1) 4.3 18:23:30 10° W 18:28:51 49° SSW 18:33:50 12° SE
Helios 1A Rocket 3.5 18:26:01 10° SE 18:29:44 34° ENE 18:33:30 10° N
ARGOS 3.7 18:28:02 10° SE 18:32:48 34° ENE 18:37:35 10° N
Cosmos 1726 Rocket 3.4 18:28:43 10° N 18:33:04 77° E 18:37:27 10° SSE
USA 267 3.7 18:29:51 21° ENE 18:33:51 42° SE 18:39:58 10° SSW
Lacrosse 5 3.0 18:32:24 10° NNW 18:36:35 25° NNE 18:37:41 23° NE
Cosmos 2279 Rocket 4.0 18:30:56 10° N 18:37:14 86° W 18:43:29 10° S
Okean-O 2.6 18:34:33 10° SSE 18:38:54 57° ENE 18:43:15 10° N
Cosmos 773 Rocket 3.8 18:34:09 10° NNW 18:39:20 83° ENE 18:44:28 10° SSE
ATLAS 2AS CENTAUR R/B 4.2 18:33:17 10° WSW 18:40:29 36° NW 18:47:34 10° NNE
Aureole 2 Rocket 4.1 18:40:20 10° SSE 18:41:10 16° SSE 18:41:10 16° SSE
CZ-2C R/B 3.4 18:43:09 29° E 18:43:48 30° E 18:48:37 10° SSE
COSMO-SKYMED 1 3.2 18:41:24 10° N 18:45:40 56° WNW 18:49:54 10° SSW
Okean O Rocket 4.1 18:43:52 10° SSW 18:47:28 24° W 18:51:05 10° NW
RESURS DK-1 4.5 18:44:42 10° WSW 18:48:04 24° NW 18:51:28 10° N
X-37B 2.6 18:46:12 10° SSW 18:47:55 18° SSE 18:47:55 18° SSE
ERS-2 2.3 18:46:37 14° N 18:49:40 70° WNW 18:53:16 10° SSW
OE (NEXTSAT) 4.2 18:46:39 10° WSW 18:50:03 71° SSE 18:50:24 64° ESE
CZ-4B R/B 3.3 18:47:14 10° N 18:50:16 30° WNW 18:53:15 10° SW
BREEZE-M DEB (TANK) 4.2 18:50:53 10° NW 18:51:43 15° NNW 18:51:43 15° NNW
Cosmos 1538 Rocket 3.8 18:58:05 10° NNW 19:03:17 77° ENE 19:08:26 10° SSE
Cosmos 1844 Rocket 2.7 19:00:05 10° S 19:05:37 59° ESE 19:07:13 43° NE
PSLV R/B 4.4 19:02:51 14° N 19:06:26 62° WNW 19:10:35 10° SSW
USA 234 3.9 19:06:27 33° NE 19:07:59 37° NNE 19:13:53 10° NW
Meteor 2-1 Rocket 4.0 19:03:27 10° N 19:09:03 69° E 19:14:32 10° SSE
CZ-4C R/B 4.3 19:05:53 10° WNW 19:09:40 19° NNW 19:13:43 11° NNE
Cosmos 489 Rocket 4.5 19:06:44 10° NNW 19:13:02 59° ENE 19:15:41 35° SE
Cosmos 1092 Rocket 3.9 19:07:57 10° S 19:14:01 58° E 19:17:18 27° NNE
Iridium 4 Rocket 4.4 19:11:55 10° N 19:23:28 - SSE 19:15:35 36° NNE
YAOGAN 1 3.2 19:14:58 10° S 19:19:12 54° W 19:23:27 10° NNW
COSMOS 2455 3.0 19:14:37 10° SW 19:20:37 71° WNW 19:23:38 31° NNE
CSL-04 Rocket 3.6 19:23:41 10° SSE 19:29:02 83° WSW 19:34:31 10° NNW
CZ-4 R/B 3.2 19:26:40 10° SSW 19:30:24 32° W 19:34:07 10° NNW
Nadezhda 4 Rocket 4.4 19:28:28 10° SSW 19:34:40 60° W 19:40:50 10° N
ATLAS 5 CENTAUR R/B 3.8 19:39:02 10° WNW 19:41:46 17° NNW 19:42:38 16° NNW
SJ 16-02 2.4 19:42:34 10° SSW 19:45:50 43° WSW 19:45:50 43° WSW
H-2A R/B 3.5 19:45:00 10° SSW 19:49:28 34° W 19:54:02 10° NNW
NOSS 3-1 (C) 4.4 19:50:39 10° NNW 19:56:36 46° NNE 19:56:36 46° NNE
Cosmos 1818 4.4 20:01:35 10° SW 20:06:01 48° W 20:06:01 48° W
USA 267 3.5 20:17:12 61° NW 20:17:12 61° NW 20:23:24 10° WSW
Lacrosse 5 3.9 20:15:04 10° NW 20:16:54 23° NW 20:16:54 23° NW
CZ-2C R/B 3.9 20:24:39 38° W 20:24:39 38° W 20:29:15 10° SW
